Other Public Products
Issued by NWS Grand Forks, ND

Home | Current Version | Previous Version | Graphics & Text | Print | Product List | Glossary On
Versions: 1 2 3 4 5 6 7 8 9 10 11 12 13 14 15 16 17 18 19 20 21 22 23 24 25 26 27 28 29 30 31 32 33 34 35 36 37 38 39 40 41 42 43 44 45 46 47 48 49 50
915
FPUS83 KFGF 140531
OPUFGF
PRAIRIE TO PINES WEATHER ROUNDUP
NATIONAL WEATHER SERVICE EASTERN NORTH DAKOTA/GRAND FORKS ND
1100 PM CST WED DEC 13 2017

 **SATELLITE DATA USED TO AUGMENT SKY COVER AT AUTOMATED STATIONS**
 *****  WEATHER ACROSS EASTERN NORTH DAKOTA  *****

CITY           SKY/WX    TMP DP  RH WIND       PRES   REMARKS
GRAND FORKS    FLURRIES  19  14  81 NW8       30.00R WCI   9
GRND FORKS AFB FLURRIES  16  12  86 N7        30.00S WCI   6
GRND FORKS NWS   N/A     18 N/A N/A NE5         N/A  WCI  11
BUXTON           N/A     18  16  90 N5          N/A  WCI  11
DEVILS LAKE    CLOUDY    19  18  93 CALM      29.97R
FARGO          LGT SNOW  19  14  81 N12       30.00S WCI   7
WAHPETON ARPT    N/A     19  14  79 N8        30.00S WCI   9
$$

 *****  WEATHER ACROSS CENTRAL AND WESTERN NORTH DAKOTA  *****

CITY           SKY/WX    TMP DP  RH WIND       PRES   REMARKS
JAMESTOWN      CLOUDY    25  23  92 N6        29.96R WCI  18
BISMARCK       CLOUDY    33  25  72 W7        30.00S
MINOT          CLOUDY    31  25  78 SW7       29.95S WCI  24
MINOT AFB      CLOUDY    29  24  84 W7        29.94S WCI  22
GARRISON         N/A     25  22  88 W6        29.97S WCI  18
WILLISTON      CLOUDY    35  29  78 W8        30.01R
DICKINSON      MOCLDY    34  26  72 W15       29.98F WCI  24
HETTINGER      MOCLDY    34  26  72 W13       30.03S WCI  25
$$

 *****  OTHER OBSERVATIONS NORTHEAST NORTH DAKOTA  *****

CITY           SKY/WX    TMP DP  RH WIND       PRES   REMARKS
WALHALLA       FAIR      16  16 100 CALM      29.98F
LANGDON        CLOUDY    18  18 100 NW6       29.94S WCI   9
CAVALIER       CLOUDY    16  14  93 CALM      29.99F
GRAFTON        CLOUDY    16  12  86 NW7       30.03S WCI   6
CANDO          CLOUDY    21  21 100 NE3       29.97S
FORT TOTTEN      N/A     21  18  89 N2        29.95S
ROLLA          CLOUDY    21  21 100 S7        29.93S WCI  13
RUGBY          CLOUDY    28  28 100 SW3       29.94S
 ***** THE ABOVE OBSERVATIONS ARE NON NWS ARE NOT QUALITY
        CONTROLLED AND MAY MIS-REPORT RAIN FOR SNOW...
$$

 *****  OTHER OBSERVATIONS SOUTHEAST NORTH DAKOTA *****

CITY           SKY/WX    TMP DP  RH WIND       PRES   REMARKS
COOPERSTOWN    CLOUDY    19  18  93 CALM      29.97S
VALLEY CITY    CLOUDY    21  21 100 N5        29.99R WCI  15
OAKES            N/A     23  25 100 E5        29.99R WCI  17
GWINNER          N/A     21  19  93 E5        29.99R WCI  15
SHEYENNE NWR     N/A     19  15  83 NE6       29.95S WCI  11
BUFFALO          N/A     19  15  83 W5          N/A  WCI  13
WYNDMERE       NOT AVBL
 ***** THE ABOVE OBSERVATIONS ARE NON NWS ARE NOT QUALITY
       CONTROLLED AND MAY MIS-REPORT RAIN FOR SNOW...
$$

  *****  WEATHER ACROSS NORTHERN MINNESOTA  *****

CITY           SKY/WX    TMP DP  RH WIND       PRES   REMARKS
FLAG ISLAND    CLOUDY     7   3  85 CALM      29.92S
WARROAD        FAIR       1  -2  85 CALM      29.94F
ROSEAU         FLURRIES  10   7  85 CALM      29.95S
HALLOCK        FLURRIES  16  12  86 CALM      29.99R
THF RVR FALLS  FLURRIES  13  11  92 W5        29.97S WCI   5
HALSTAD        NOT AVBL
FOSSTON        FLURRIES  10   9  92 SE3       29.96R
BAUDETTE       FAIR       4   2  91 CALM      29.93F
WASKISH        FLURRIES  12  10  92 SW5       29.95R WCI   4
CROOKSTON      FLURRIES  14  10  85 CALM      30.01R
$$
  *****  WEATHER ACROSS CENTRAL AND WEST MINNESOTA  *****

CITY           SKY/WX    TMP DP  RH WIND       PRES   REMARKS
BEMIDJI        FLURRIES  13  10  87 NW3       29.93S
PARK RAPIDS    CLOUDY    14  10  84 NW5       29.94R WCI   6
WADENA         CLOUDY    14  10  85 CALM      29.95S
DETROIT LAKES  CLOUDY    18  14  86 NW7       29.96F WCI   8
MOORHEAD       MIX PCPN  18  12  79 CALM      30.00S
FERGUS FALLS   CLOUDY    18  14  86 N3        30.01S
ELBOW LAKE     CLOUDY    19  15  86 NW5       29.98S WCI  12
MORRIS MN      CLOUDY    19  16  86 NW8       29.98R WCI   9
STAPLES        CLOUDY    14  10  85 NW3       29.96R
WHEATON        CLOUDY    19  14  79 N3        30.02S
$$
  *****  WEATHER ELSEWHERE ACROSS MINNESOTA  *****

CITY           SKY/WX    TMP DP  RH WIND       PRES   REMARKS
DULUTH         FAIR      11   9  92 NW5       29.88S WCI   3
INTRNTL FALLS  CLOUDY    14   9  80 W3        29.91F
ELY            FLURRIES   9   7  92 CALM      29.90R
CLOQUET        FAIR      12   9  85 CALM      29.91R
BRAINERD       CLOUDY    17  12  80 N7        29.94R WCI   8
HIBBING        CLOUDY    15  11  83 NW3       29.90S
ALEXANDRIA     CLOUDY    18  13  80 NE5       29.96R WCI  11
SAINT CLOUD    FAIR      11   9  92 NW7       29.95R WCI   0
MINNEAPOLIS    FAIR      18  15  88 NW3       29.95R
$$

  *****  WEATHER ACROSS SOUTH DAKOTA  *****

CITY           SKY/WX    TMP DP  RH WIND       PRES   REMARKS
SIOUX FALLS    CLOUDY    30  27  88 N8        29.97R WCI  22
BROOKINGS      CLOUDY    27  23  86 NE7       29.97R WCI  19
WATERTOWN      CLOUDY    25  24  96 N6        29.95R WCI  18
HURON          CLOUDY    33  26  75 NW8       29.99R
SISSETON         N/A     23  19  85 N13       29.98R WCI  11
ABERDEEN       CLOUDY    28  28 100 E6        29.99S WCI  22
MITCHELL       CLOUDY    35  24  64 NW9       30.02R
PIERRE         FAIR      28  25  88 NW8       30.04R WCI  20
MOBRIDGE       FAIR      26  22  84 NW6       29.98F WCI  19
RAPID CITY     FAIR      38  23  55 NW25G35   30.08R
$$

  *****  SOME WEATHER IN NEARBY STATES *****

CITY           SKY/WX    TMP DP  RH WIND       PRES   REMARKS
GLASGOW MT     MOCLDY    34  25  69 NW22      30.12R WCI  22
GREAT FALLS MT FAIR      25  22  88 W10       30.35R WCI  15
CHEYENNE WY    LGT SNOW  28  26  92 N15G22    30.13S FOG     WCI  16
SCOTTSBLUFF NE CLOUDY    38  24  57 N25G32    30.15R
OMAHA NE       CLOUDY    39  26  59 N15       29.98R
DES MOINES IA  CLOUDY    32  20  61 N18G24    29.94R WCI  20
DAVENPORT IA   CLOUDY    26  16  65 N14       29.90R WCI  14
CHICAGO IL     FLURRIES  28  20  71 N15G24    29.74R WCI  16
EAU CLAIRE WI  CLOUDY    11   8  88 N3        29.92R
LA CROSSE WI   FAIR      19  12  74 CALM      29.93R
$$

  *****  SOME NATIONAL WEATHER *****

CITY           SKY/WX    TMP DP  RH WIND       PRES   REMARKS
LA GUARDIA NY  CLOUDY    28  10  46 W13       29.68R WCI  17
RALEIGH NC     FAIR      37  19  48 SW13      29.73S
ATLANTA GA     FAIR      43  23  45 W8        29.87R
NEW ORLEANS LA CLOUDY    50  42  74 S5        30.00F
OKLAHOMA CITY  FAIR      40  23  50 N8        29.95R
ALBUQUERQUE NM FAIR      33   4  29 E3        30.02R
SALT LAKE CITY CLOUDY    30  26  85 N9        30.29R FOG     WCI  22
LOS ANGELES CA FAIR      61  45  55 CALM      29.96R
BOISE ID       CLOUDY    26  23  88 CALM      30.44R
SEATTLE WA     FAIR      43  38  82 NE14      30.38S
$$

*** WEATHER ACROSS MANITOBA...SASKATCHEWAN AND ONTARIO ***
                ***ONTARIO***

CITY           SKY/WX    TMP DP  RH WIND       PRES   REMARKS
GERALDTON      FLURRIES  -6 -11  77 NW9       29.85S WCI -22
THUNDER BAY    CLEAR     -4  -8  84 W9        29.95S WCI -20
SIOUX LOOKOUT  CLEAR    -13 -18  77 N2        29.88F
TORONTO        LGT SNOW  14   9  79 NE12      29.57S WCI   0
BIG TROUT LK   CLEAR    -24 -27  83 W3        29.90F
PICKLE LAKE    NOT AVBL
DRYDEN         MOCLDY     1   0  92 SW2       29.88F
KENORA         MOCLDY     5   3  92 W3        29.90S
$$
                *** MANITOBA***

CITY           SKY/WX    TMP DP  RH WIND       PRES   REMARKS
BRANDON        FLURRIES  18  16  93 E5        29.95R WCI  11
DAUPHIN        CLOUDY    19  19 100 CALM      29.96R
ISLAND LAKE    MOCLDY     3  -2  78 VRB2      29.93R
PILOT MOUND      N/A     18  14  86 SE1         N/A
THE PAS        FLURRIES  18  12  79 NW9       30.00S WCI   6
THOMPSON       PTCLDY    -2  -6  84 NW5       29.98  WCI -12
WINNIPEG       FLURRIES  14  10  85 W7        29.97S WCI   4
LYNN LAKE      PTCLDY     0  -4  85 NW7       30.00S WCI -13
CHURCHILL      FLURRIES  -8 -13  77 NW17      30.04S WCI -31
GILLAM         FLURRIES   1  -4  78 NW6       29.95S WCI -10
$$
                ***SASKATCHEWAN***

CITY           SKY/WX    TMP DP  RH WIND       PRES   REMARKS
ESTEVAN        PTCLDY    30  27  86 W10       29.95S WCI  21
KINDERSLEY     MOCLDY    32  27  80 NW16G25   30.17R WCI  21
LLOYDMINSTER   MOCLDY    34  27  75 NW9       30.21R
PRINCE ALBERT  MOCLDY    30  25  80 NW8       30.10R WCI  23
REGINA         CLOUDY    32  28  86 NW20G28   30.01R WCI  20
YORKTON        FLURRIES  30  27  86 NW16      29.95R W



USA.gov is the U.S. government's official web portal to all federal, state and local government web resources and services.